Weather History for Denver, CO

Change the Weather History Date:

Sunday, May 19, 2013

  Actual Average Record
Temperature  
Mean Temperature 58 °F 58 °F  
Max Temperature 70 °F 73 °F 90 °F (2009)
Min Temperature 45 °F 44 °F 25 °F (1915)
Degree Days  
Heating Degree Days 7 7  
Month to date heating degree days 201 196  
Since 1 July heating degree days 6003 5927  
Cooling Degree Days 0 1  
Month to date cooling degree days 25 4  
Year to date cooling degree days 25 5  
Growing Degree Days 8 (Base 50)    
Moisture  
Dew Point 35 °F    
Average Humidity 50    
Maximum Humidity 76    
Minimum Humidity 24    
Precipitation  
Precipitation 0.00 in 0.07 in 1.56 in (1988)
Month to date precipitation 0.65 1.26  
Year to date precipitation 5.07 4.67  
Snow  
Snow 0.00 in - - ()
Month to date snowfall 3.4  
Since 1 July snowfall 78.4  
Snow Depth 0.00 in    
Sea Level Pressure  
Sea Level Pressure 29.69 in    
Wind  
Wind Speed 9 mph (SSW)    
Max Wind Speed 23 mph    
Max Gust Speed 30 mph    
Visibility 10 miles    
Events      
T = Trace of Precipitation, MM = Missing Value Source: NWS Daily Summary

Daily Weather History Graph

Daily Weather History Graph

Search for Another Location

Airport:

Trip Planner

Search our weather history database for the weather conditions in past years. The results will help you decide how hot, cold, wet, or windy it might be!

Date:

Astronomy

May. 19, 2013 Rise Set
Actual Time 5:40 AM MDT 8:10 PM MDT
Civil Twilight 5:09 AM MDT 8:41 PM MDT
Nautical Twilight 4:30 AM MDT 9:20 PM MDT
Astronomical Twilight 3:47 AM MDT 10:03 PM MDT
Moon 2:18 PM MDT (5/19) 2:04 AM MDT (5/19)
Length of Visible Light 15h 32m
Length of Day
14h 30m
Waxing Gibbous, 66% of the Moon is Illuminated
May 19
Waxing Gibbous
May 24
Full
May 31
Last Quarter
Jun 8
New
Jun 16
First Quarter

Hourly Weather History & Observations

Time (MDT) Temp. Windchill Dew Point Humidity Pressure Visibility Wind Dir Wind Speed Gust Speed Precip Events Conditions
12:53 AM 52.0 °F - 37.9 °F 59% 29.66 in 10.0 mi Calm Calm - N/A   Scattered Clouds
1:53 AM 46.9 °F - 39.0 °F 74% 29.68 in 10.0 mi SSW 6.9 mph - N/A   Mostly Cloudy
2:53 AM 51.1 °F - 39.0 °F 63% 29.68 in 10.0 mi SSW 9.2 mph - N/A   Mostly Cloudy
3:53 AM 48.2 °F - 39.2 °F 71% 29.85 in 10.0 mi SSE 5.8 mph - N/A   Mostly Cloudy
4:53 AM 48.0 °F - 39.0 °F 71% 29.66 in 10.0 mi South 9.2 mph - N/A   Mostly Cloudy
5:53 AM 51.8 °F - 37.4 °F 58% 29.85 in 10.0 mi SW 8.1 mph - N/A   Overcast
6:53 AM 54.0 °F - 37.0 °F 53% 29.67 in 10.0 mi SW 8.1 mph - N/A   Mostly Cloudy
7:53 AM 55.9 °F - 36.0 °F 47% 29.69 in 10.0 mi WSW 8.1 mph - N/A   Mostly Cloudy
8:53 AM 57.0 °F - 36.0 °F 45% 29.69 in 10.0 mi WSW 4.6 mph - N/A   Mostly Cloudy
9:53 AM 61.0 °F - 35.1 °F 38% 29.67 in 10.0 mi ESE 3.5 mph - N/A   Mostly Cloudy
10:53 AM 64.0 °F - 32.0 °F 30% 29.66 in 10.0 mi Calm Calm - N/A   Mostly Cloudy
11:53 AM 66.0 °F - 30.9 °F 27% 29.64 in 10.0 mi West 3.5 mph - N/A   Mostly Cloudy
12:53 PM 68.0 °F - 30.2 °F 24% 29.79 in 10.0 mi North 8.1 mph - N/A   Mostly Cloudy
1:53 PM 68.0 °F - 30.9 °F 25% 29.62 in 10.0 mi NNE 8.1 mph 17.3 mph N/A   Mostly Cloudy
2:53 PM 66.0 °F - 32.0 °F 28% 29.61 in 10.0 mi NNE 15.0 mph 24.2 mph N/A   Mostly Cloudy
3:53 PM 68.0 °F - 30.9 °F 25% 29.62 in 10.0 mi North 17.3 mph 25.3 mph N/A   Mostly Cloudy
4:53 PM 66.0 °F - 28.9 °F 25% 29.63 in 10.0 mi NNW 10.4 mph 21.9 mph N/A   Mostly Cloudy
5:53 PM 64.9 °F - 28.9 °F 26% 29.64 in 10.0 mi NNW 19.6 mph 29.9 mph N/A   Mostly Cloudy
6:49 PM 60.8 °F - 37.4 °F 42% 29.81 in 10.0 mi ENE 15.0 mph - N/A   Overcast
6:53 PM 60.1 °F - 37.0 °F 42% 29.66 in 10.0 mi ENE 11.5 mph - N/A   Mostly Cloudy
7:53 PM 57.0 °F - 39.9 °F 53% 29.68 in 10.0 mi ESE 11.5 mph - N/A   Mostly Cloudy
8:53 PM 52.0 °F - 39.9 °F 63% 29.71 in 10.0 mi South 10.4 mph - N/A   Mostly Cloudy
9:53 PM 51.8 °F - 37.4 °F 58% 29.87 in 10.0 mi South 10.4 mph - N/A   Mostly Cloudy
10:53 PM 51.1 °F - 37.0 °F 59% 29.72 in 10.0 mi SSW 8.1 mph - N/A   Mostly Cloudy
11:53 PM 45.0 °F 40.6 °F 37.0 °F 74% 29.73 in 10.0 mi SSE 8.1 mph - N/A   Mostly Cloudy